WetterOnline ( https://www.wetteronline.ch )

Wetter aktuell Harz (in 600m)

Aktuelles Wetter: Braunlage (609m)

6-stündlich | Neueste Meldungen
Ortszeit Temperatur Wetter
Di, 20.08. 8:00 13.5° C leicht bewölkt
Di, 20.08. 2:00 10.2° C bewölkt
Mo, 19.08. 20:00 16.0° C leicht bewölkt
Mo, 19.08. 14:00 16.9° C wolkig
Mo, 19.08. 8:00 12.2° C wolkig
Mo, 19.08. 2:00 12.4° C wolkig
So, 18.08. 20:00 15.3° C Regen
So, 18.08. 14:00 17.9° C bedeckt
Ortszeit Temperatur Wetter
Di, 20.08. 11:00 17.2° C wolkig
Di, 20.08. 10:50 17.2° C bedeckt
Di, 20.08. 10:40 17.4° C bewölkt
Di, 20.08. 10:30 16.7° C bedeckt
Di, 20.08. 10:20 16.7° C bedeckt
Di, 20.08. 10:10 16.4° C bedeckt
Di, 20.08. 10:00 16.2° C bedeckt
Di, 20.08. 9:30 16.5° C bedeckt
Di, 20.08. 9:00 15.9° C wolkig
Di, 20.08. 8:30 15.2° C bewölkt
Di, 20.08. 8:00 13.5° C leicht bewölkt
Ortszeit Relative Feuchte Sichtweite
Di, 20.08. 8:00 73% 45 km
Di, 20.08. 2:00 84% 45 km
Mo, 19.08. 20:00 55% >70 km
Mo, 19.08. 14:00 55% >70 km
Mo, 19.08. 8:00 89% 30 km
Mo, 19.08. 2:00 95% 6 km
So, 18.08. 20:00 97% 3.4 km
So, 18.08. 14:00 86% >70 km
Ortszeit Relative Feuchte Sichtweite
Di, 20.08. 11:00 55% 55 km
Di, 20.08. 10:50 55% -
Di, 20.08. 10:40 56% -
Di, 20.08. 10:30 57% 45 km
Di, 20.08. 10:20 57% -
Di, 20.08. 10:10 60% -
Di, 20.08. 10:00 60% 45 km
Di, 20.08. 9:30 60% 45 km
Di, 20.08. 9:00 61% 60 km
Di, 20.08. 8:30 65% 50 km
Di, 20.08. 8:00 73% 45 km
Ortszeit Niederschlagsmenge Niederschlagsart
Di, 20.08. 8:00 0.0 l/m2 in 12 Std. -
Di, 20.08. 2:00 0.0 l/m2 in 6 Std. -
Mo, 19.08. 20:00 0.0 l/m2 in 12 Std. -
Mo, 19.08. 14:00 0.0 l/m2 in 6 Std. -
Mo, 19.08. 8:00 2 l/m2 in 12 Std. -
Mo, 19.08. 2:00 2 l/m2 in 6 Std. Regen
So, 18.08. 20:00 15 l/m2 in 12 Std. Regen
So, 18.08. 14:00 1 l/m2 in 6 Std. Regen
Ortszeit Niederschlagsmenge Niederschlagsart
Di, 20.08. 11:00 0.0 l/m2 in 1 Std. -
Di, 20.08. 10:50 keine Meldung -
Di, 20.08. 10:40 keine Meldung -
Di, 20.08. 10:30 0.0 l/m2 in 1 Std. -
Di, 20.08. 10:20 keine Meldung -
Di, 20.08. 10:10 keine Meldung -
Di, 20.08. 10:00 0.0 l/m2 in 1 Std. -
Di, 20.08. 9:30 0.0 l/m2 in 1 Std. -
Di, 20.08. 9:00 0.0 l/m2 in 1 Std. -
Di, 20.08. 8:30 0.0 l/m2 in 1 Std. -
Di, 20.08. 8:00 0.0 l/m2 in 1 Std. -
Ortszeit Stärke Spitze Richtung
km/h Bft. km/h Grad Sektor
Di, 20.08. 8:00 4 1 11 170° S
Di, 20.08. 2:00 0 0 11 - -
Mo, 19.08. 20:00 6 1 35 280° W
Mo, 19.08. 14:00 13 3 48 250° W
Mo, 19.08. 8:00 14 3 25 230° SW
Mo, 19.08. 2:00 4 1 29 340° N
So, 18.08. 20:00 7 2 76 270° W
So, 18.08. 14:00 17 3 35 200° S
Ortszeit Stärke Spitze Richtung
km/h Bft. km/h Grad Sektor
Di, 20.08. 11:00 11 2 18 220° SW
Di, 20.08. 10:50 11 2 - 220° SW
Di, 20.08. 10:40 9 2 - 220° SW
Di, 20.08. 10:30 7 2 18 240° SW
Di, 20.08. 10:20 7 2 - 240° SW
Di, 20.08. 10:10 7 2 - 230° SW
Di, 20.08. 10:00 9 2 19 240° SW
Di, 20.08. 9:30 9 2 19 230° SW
Di, 20.08. 9:00 6 1 11 280° W
Di, 20.08. 8:30 0 0 4 - -
Di, 20.08. 8:00 4 1 7 170° S
Ortszeit Untergrenze Bedeckung Gattung
total tief tief mittel hoch
Di, 20.08. 8:00 7500 m 3/8 0/8 - - -
Di, 20.08. 2:00 2100 m 7/8 7/8 - - -
Mo, 19.08. 20:00 8400 m 3/8 0/8 - - -
Mo, 19.08. 14:00 1200 m 5/8 5/8 - - -
Mo, 19.08. 8:00 360 m 7/8 2/8 - - -
Mo, 19.08. 2:00 150 m 8/8 3/8 - - -
So, 18.08. 20:00 240 m 8/8 8/8 - - -
So, 18.08. 14:00 510 m 8/8 8/8 - - -
Ortszeit Bedeckungsgrad in Achtel und Wolkenuntergrenze
Di, 20.08. 11:00 1(6300m) 8(6900m)
Di, 20.08. 10:50 1(6300m) 8(6900m)
Di, 20.08. 10:40 3(5700m) 7(6600m) 8(7200m)
Di, 20.08. 10:30 8(5700m) 8(6600m)
Di, 20.08. 10:20 8(5700m)
Di, 20.08. 10:10 8(5700m) 8(7500m)
Di, 20.08. 10:00 7(6000m) 8(6300m) 8(9000m)
Di, 20.08. 9:30 7(6000m) 8(6600m) 8(9000m)
Di, 20.08. 9:00 3(6000m) 8(7500m) 8(9000m)
Di, 20.08. 8:30 6(6600m) 7(7200m) 8(9000m)
Di, 20.08. 8:00 3(7500m) 6(7500m)
Ortszeit Luftdruck NN (hPa) Tendenz (hPa in 3 Std.)
Di, 20.08. 8:00 1022 + 0,7
Di, 20.08. 2:00 1022 + 0,8
Mo, 19.08. 20:00 1018 + 0,9
Mo, 19.08. 14:00 1016 + 1,3
Mo, 19.08. 8:00 1015 + 1,1
Mo, 19.08. 2:00 1012 + 1,5
So, 18.08. 20:00 1008 + 1,1
So, 18.08. 14:00 1006 - 0,4
Ortszeit Luftdruck NN (hPa) Tendenz (hPa in 3 Std.)
Di, 20.08. 11:00 1021 + 0,8
Di, 20.08. 10:50 1021 keine Meldung
Di, 20.08. 10:40 1021 keine Meldung
Di, 20.08. 10:30 1021 + 0,9
Di, 20.08. 10:20 1021 keine Meldung
Di, 20.08. 10:10 1022 keine Meldung
Di, 20.08. 10:00 1022 + 1,0
Di, 20.08. 9:30 1021 + 1,0
Di, 20.08. 9:00 1021 + 0,9
Di, 20.08. 8:30 1021 + 0,6
Di, 20.08. 8:00 1022 + 0,7
Ortszeit Schneehöhe (cm)
Di, 20.08. 8:00 -
Di, 20.08. 2:00 -
Mo, 19.08. 20:00 -
Mo, 19.08. 14:00 -
Mo, 19.08. 8:00 -
Mo, 19.08. 2:00 -
So, 18.08. 20:00 -
So, 18.08. 14:00 -
Ortszeit Schneehöhe (cm)
Di, 20.08. 11:00 -
Di, 20.08. 10:50 -
Di, 20.08. 10:40 -
Di, 20.08. 10:30 -
Di, 20.08. 10:20 -
Di, 20.08. 10:10 -
Di, 20.08. 10:00 -
Di, 20.08. 9:30 -
Di, 20.08. 9:00 -
Di, 20.08. 8:30 -
Di, 20.08. 8:00 -
Link zu dieser Seite / Seite empfehlen

Das Wetter in ...